Tracking 20628 objects as of 8-Apr-2020
HD Live streaming from Space Station
objects crossing your sky now

SL-8 R/B

Track SL-8 R/B now!
10-day predictions


NORAD ID: 20557
Int'l Code: 1990-029J
Perigee: 1,465.0 km
Apogee: 1,706.7 km
Inclination: 74.0 °
Period: 117.7 minutes
Semi major axis: 7956 km
RCS: 6.465 m2 (large)
Launch date: April 6, 1990
Source: Commonwealth of Independent States (former USSR) (CIS)
Launch site: PLESETSK MISSILE AND SPACE COMPLEX (PKMTR)

Note: This is a ROCKET BODY
aabbcc
Your satellite tracking list
Your tracking list is empty




NASA's NSSDC Master Catalog

Two Line Element Set (TLE):
1 20557U 90029J   20098.63523491 -.00000016  00000-0 -14843-4 0  9994
2 20557  73.9876  47.1150 0151884 144.0577  28.2324 12.23187117339845
Source of the keplerian elements: AFSPC